Powrót do katalogu

FLOCK 4Q 9

AktywnyNaukaSSO
NORAD 58322·PAYLOAD·🇺🇸 United States

Wystrzelony Nov 11, 2023 z Vandenberg Space Force Base

Loading…

Następne Przeloty (najbliższe 24 godziny)

TLE

ŚwieżeSource: CelesTrak SupGP

Epoka: Sep 14, 2026, 18:45 UTC

1 58322C 23174BU  26257.78148148  .00022345  00000+0  34147-3 0  2574
2 58322  97.3818 348.7786 0006476 164.1311 264.0209 15.54386962    14

Śledź FLOCK 4Q 9 w czasie rzeczywistym z AllMySat

Download on the App Store